Location: Bremen
(53.0833°N, 8.8000°E)
Time: 07:27:39
(UTC+02:00)

ISS - Visible Passes

Search period start: 16 July 2024 00:00
Search period end: 26 July 2024 00:00
Orbit: 410 x 424 km, 51.6° (Epoch: 15 July)

Date Brightness Start Highest point End Pass type
(mag) Time Alt. Az. Time Alt. Az. Time Alt. Az.
16 Jul -2.7 01:27:45 10° W 01:30:10 28° SW 01:30:10 28° SW visible
16 Jul -3.8 23:02:40 10° W 23:05:58 69° S 23:09:17 10° E visible
17 Jul -3.3 00:39:23 10° W 00:42:31 39° SSW 00:43:05 35° S visible
17 Jul -3.6 23:51:01 10° W 23:54:15 49° SSW 23:56:04 22° SE visible
18 Jul -1.5 01:28:15 10° WSW 01:28:56 13° WSW 01:28:56 13° WSW visible
18 Jul -3.7 23:02:38 10° W 23:05:55 59° S 23:09:04 11° ESE visible
19 Jul -2.3 00:39:34 10° W 00:41:56 23° SW 00:41:56 23° SW visible
19 Jul -2.8 23:50:59 10° W 23:53:58 31° SSW 23:54:57 26° S visible
20 Jul -3.2 23:02:27 10° W 23:05:36 40° SSW 23:07:57 16° SE visible
21 Jul -1.3 00:40:15 10° WSW 00:40:49 11° SW 00:40:49 11° SW visible
21 Jul -2.0 23:51:04 10° W 23:53:23 18° SW 23:53:50 17° SSW visible
22 Jul -2.3 23:02:14 10° W 23:05:00 24° SSW 23:06:51 15° SSE visible
23 Jul -2.7 22:13:30 10° W 22:16:31 32° SSW 22:19:31 10° SE visible
24 Jul -1.4 23:02:26 10° WSW 23:04:03 13° SW 23:05:41 10° S visible
25 Jul -1.8 22:13:11 10° W 22:15:34 19° SW 22:17:57 10° SSE visible
